Simultaneous Nadir Overpasses (SNOs) Predictions

Prediction of SNOs between NPP and TERRA Satellite Orbit:

Table of predicted SNOs for the next 14.0 days since TLE Epoch: 5/12/2012
Index Date (NPP) Time (NPP) Lat,Lon (NPP) SZA (NPP ) Date (TERRA) Time (TERRA) Lat,Lon (TERRA) SZA (TERRA ) Distance(km) Time Diff (sec)
1 05/12/2012 19:12:00 68.38,-109.72 49.89 05/12/2012 19:13:11 68.36,-109.65 49.86 3.67 71
2 05/12/2012 20:02:40 -68.21, 57.82 130.30 05/12/2012 20:02:42 -68.20, 57.79 130.31 1.91 2
3 05/12/2012 20:53:23 68.01,-134.63 49.50 05/12/2012 20:52:10 68.03,-134.77 49.52 6.19 73
4 05/15/2012 11:28:51 68.29, 6.18 49.15 05/15/2012 11:29:40 68.31, 6.17 49.17 2.58 49
5 05/15/2012 12:19:32 -68.16, 173.65 130.98 05/15/2012 12:19:11 -68.15, 173.61 131.00 2.33 21
6 05/15/2012 13:10:00 67.16, -17.82 48.00 05/15/2012 13:08:53 67.19, -19.83 48.04 86.97 67
7 05/18/2012 03:45:43 68.25, 122.00 48.52 05/18/2012 03:46:09 68.24, 121.97 48.50 2.09 26
8 05/18/2012 04:36:24 -68.13, -70.52 131.62 05/18/2012 04:35:39 -68.14, -70.52 131.61 1.18 45
9 05/20/2012 19:11:54 -68.58, 70.05 131.72 05/20/2012 19:13:06 -68.50, 70.52 131.80 21.06 72
10 05/20/2012 20:02:34 68.23,-122.20 47.93 05/20/2012 20:02:36 68.21,-122.18 47.90 3.06 2
11 05/20/2012 20:53:15 -68.10, 45.29 132.21 05/20/2012 20:52:06 -68.11, 45.33 132.20 2.06 69
12 05/23/2012 11:28:41 -68.29,-173.80 132.53 05/23/2012 11:29:37 -68.28,-173.85 132.54 2.50 56
13 05/23/2012 12:19:25 68.17, -6.34
